QPF
0.00 0.00 0.00 0.00 0.00 0.00 0.00 0.00 0.00 0.00 0.00 0.00 0.00 0.00 0.00 0.00 0.00 0.00 0.00 0.00 0.00 0.00 0.00 0.00 0.00 0.00 0.00 0.00 0.00 0.01 0.01 0.01 0.01 0.01 0.01 0.02 0.02 0.03
0.00 0.00 0.00 0.00 0.00 0.00 0.00 0.00 0.00 0.01 0.01 0.00 0.00 0.00 0.00 0.00 0.00 0.00 0.00 0.00 0.00 0.00 0.00 0.00 0.00 0.00 0.00 0.00 0.00 0.01 0.01 0.01 0.01 0.01 0.02 0.02 0.03 0.03
0.00 0.01 0.01 0.00 0.00 0.00 0.00 0.00 0.00 0.01 0.01 0.00 0.00 0.00 0.00 0.00 0.00 0.00 0.00 0.00 0.00 0.00 0.00 0.00 0.00 0.00 0.00 0.00 0.01 0.01 0.01 0.01 0.01 0.01 0.02 0.02 0.02 0.02
0.00 0.00 0.00 0.00 0.00 0.01 0.01 0.01 0.01 0.01 0.01 0.01 0.01 0.00 0.00 0.00 0.00 0.00 0.00 0.00 0.00 0.00 0.00 0.00 0.00 0.00 0.00 0.00 0.01 0.01 0.01 0.01 0.01 0.01 0.01 0.02 0.02 0.02
0.00 0.00 0.00 0.01 0.01 0.01 0.01 0.01 0.01 0.01 0.01 0.01 0.01 0.00 0.00 0.00 0.00 0.00 0.00 0.00 0.00 0.00 0.00 0.00 0.00 0.00 0.00 0.00 0.00 0.00 0.00 0.00 0.01 0.01 0.01 0.01 0.02 0.02
0.01 0.01 0.01 0.01 0.01 0.01 0.01 0.01 0.02 0.02 0.01 0.01 0.01 0.01 0.00 0.00 0.00 0.00 0.00 0.00 0.00 0.00 0.00 0.00 0.00 0.00 0.00 0.00 0.00 0.00 0.00 0.00 0.01 0.01 0.01 0.02 0.02 0.02
0.00 0.01 0.01 0.01 0.01 0.01 0.02 0.02 0.02 0.01 0.02 0.01 0.01 0.01 0.01 0.01 0.01 0.01 0.01 0.00 0.00 0.00 0.00 0.00 0.00 0.00 0.00 0.00 0.00 0.00 0.00 0.01 0.01 0.01 0.02 0.02 0.02 0.02
0.00 0.00 0.00 0.01 0.01 0.02 0.02 0.02 0.02 0.01 0.02 0.02 0.02 0.01 0.01 0.01 0.01 0.01 0.01 0.01 0.01 0.01 0.01 0.00 0.00 0.00 0.00 0.00 0.00 0.00 0.00 0.01 0.01 0.01 0.02 0.02 0.01 0.02
0.01 0.01 0.01 0.01 0.02 0.02 0.02 0.03 0.02 0.02 0.02 0.01 0.01 0.02 0.02 0.01 0.01 0.01 0.01 0.01 0.01 0.01 0.01 0.00 0.00 0.00 0.00 0.00 0.00 0.00 0.00 0.01 0.01 0.01 0.01 0.01 0.01 0.02
0.01 0.01 0.01 0.01 0.01 0.01 0.01 0.01 0.01 0.02 0.02 0.02 0.01 0.01 0.01 0.01 0.01 0.01 0.01 0.00 0.00 0.00 0.00 0.01 0.00 0.00 0.00 0.00 0.00 0.00 0.00 0.01 0.01 0.01 0.01 0.01 0.01 0.01
0.00 0.00 0.01 0.01 0.01 0.02 0.01 0.01 0.01 0.01 0.01 0.01 0.01 0.02 0.01 0.01 0.01 0.00 0.00 0.01 0.01 0.01 0.01 0.01 0.00 0.00 0.00 0.00 0.00 0.00 0.00 0.00 0.00 0.01 0.01 0.01 0.01 0.01
0.01 0.01 0.01 0.01 0.01 0.01 0.01 0.01 0.01 0.01 0.02 0.02 0.02 0.01 0.01 0.01 0.01 0.01 0.01 0.01 0.01 0.01 0.01 0.01 0.00 0.00 0.01 0.00 0.00 0.00 0.00 0.00 0.00 0.00 0.00 0.00 0.01 0.01
0.01 0.01 0.01 0.01 0.01 0.01 0.01 0.01 0.02 0.02 0.01 0.01 0.02 0.01 0.01 0.01 0.01 0.01 0.01 0.01 0.01 0.01 0.01 0.01 0.01 0.01 0.01 0.01 0.00 0.00 0.00 0.00 0.00 0.00 0.00 0.00 0.00 0.00
0.01 0.00 0.01 0.01 0.01 0.01 0.01 0.02 0.02 0.02 0.01 0.01 0.02 0.02 0.01 0.01 0.01 0.01 0.01 0.01 0.01 0.01 0.01 0.01 0.01 0.01 0.01 0.01 0.00 0.00 0.00 0.00 0.00 0.00 0.00 0.00 0.00 0.00
0.01 0.01 0.02 0.02 0.02 0.02 0.02 0.02 0.02 0.02 0.02 0.02 0.01 0.01 0.01 0.01 0.01 0.01 0.01 0.01 0.01 0.00 0.00 0.00 0.00 0.01 0.01 0.01 0.01 0.00 0.00 0.00 0.00 0.00 0.00 0.00 0.00 0.00
0.02 0.03 0.03 0.03 0.03 0.02 0.02 0.02 0.01 0.01 0.01 0.01 0.01 0.02 0.01 0.01 0.01 0.01 0.01 0.01 0.01 0.00 0.00 0.00 0.00 0.00 0.01 0.01 0.01 0.00 0.00 0.00 0.00 0.00 0.00 0.00 0.00 0.00
0.02 0.03 0.03 0.03 0.02 0.02 0.02 0.01 0.01 0.01 0.01 0.01 0.01 0.01 0.01 0.01 0.01 0.01 0.01 0.01 0.01 0.00 0.00 0.00 0.00 0.00 0.00 0.00 0.00 0.00 0.00 0.00 0.00 0.00 0.00 0.00 0.00 0.00
0.01 0.01 0.01 0.01 0.01 0.01 0.01 0.01 0.01 0.01 0.01 0.01 0.01 0.01 0.01 0.01 0.01 0.01 0.01 0.01 0.01 0.00 0.00 0.00 0.00 0.00 0.00 0.00 0.00 0.00 0.00 0.00 0.00 0.00 0.00 0.00 0.00 0.00
0.01 0.00 0.00 0.00 0.00 0.00 0.00 0.00 0.00 0.01 0.01 0.01 0.01 0.01 0.01 0.02 0.02 0.01 0.01 0.01 0.01 0.00 0.00 0.00 0.01 0.01 0.01 0.00 0.00 0.00 0.00 0.00 0.00 0.00 0.00 0.01 0.01 0.00
0.01 0.01 0.00 0.00 0.00 0.00 0.00 0.00 0.01 0.01 0.01 0.01 0.01 0.02 0.02 0.02 0.02 0.01 0.01 0.01 0.01 0.00 0.00 0.00 0.01 0.01 0.01 0.01 0.01 0.00 0.00 0.01 0.01 0.01 0.00 0.00 0.00 0.00
0.01 0.00 0.00 0.00 0.00 0.00 0.01 0.01 0.01 0.02 0.02 0.02 0.02 0.02 0.03 0.03 0.02 0.01 0.01 0.01 0.01 0.01 0.01 0.00 0.00 0.00 0.00 0.01 0.01 0.00 0.00 0.00 0.01 0.01 0.01 0.01 0.01 0.00
0.00 0.00 0.00 0.00 0.01 0.01 0.01 0.01 0.02 0.02 0.02 0.03 0.03 0.03 0.03 0.02 0.01 0.01 0.01 0.01 0.01 0.01 0.01 0.00 0.00 0.00 0.01 0.01 0.01 0.00 0.00 0.00 0.00 0.00 0.01 0.02 0.04 0.04
0.00 0.01 0.01 0.01 0.01 0.01 0.01 0.02 0.02 0.02 0.03 0.02 0.02 0.02 0.02 0.01 0.01 0.01 0.01 0.01 0.01 0.00 0.00 0.00 0.00 0.00 0.00 0.01 0.01 0.00 0.00 0.00 0.00 0.00 0.00 0.00 0.01 0.02
MSLP
1016.51 1017.12 1017.70 1018.22 1018.66 1019.02 1019.30 1019.50 1019.65 1019.77 1019.87 1019.96 1020.05 1020.15 1020.25 1020.36 1020.48 1020.60 1020.73 1020.86 1020.99 1021.10 1021.19 1021.24 1021.24 1021.19 1021.07 1020.88 1020.65 1020.39 1020.10 1019.80 1019.49 1019.18 1018.84 1018.47 1018.06 1017.61
1015.80 1016.40 1016.96 1017.48 1017.93 1018.30 1018.61 1018.85 1019.05 1019.22 1019.37 1019.50 1019.64 1019.76 1019.88 1020.00 1020.11 1020.22 1020.33 1020.45 1020.56 1020.66 1020.74 1020.79 1020.80 1020.75 1020.64 1020.48 1020.27 1020.02 1019.75 1019.47 1019.17 1018.86 1018.52 1018.16 1017.74 1017.27
1015.11 1015.69 1016.24 1016.74 1017.20 1017.59 1017.92 1018.20 1018.45 1018.66 1018.86 1019.04 1019.21 1019.37 1019.51 1019.63 1019.74 1019.84 1019.94 1020.03 1020.12 1020.21 1020.27 1020.31 1020.32 1020.27 1020.17 1020.03 1019.83 1019.61 1019.36 1019.09 1018.82 1018.52 1018.20 1017.85 1017.44 1016.98
1014.48 1015.03 1015.57 1016.07 1016.52 1016.92 1017.28 1017.60 1017.88 1018.14 1018.37 1018.59 1018.79 1018.97 1019.12 1019.26 1019.37 1019.47 1019.55 1019.64 1019.71 1019.78 1019.84 1019.86 1019.86 1019.81 1019.71 1019.57 1019.39 1019.18 1018.95 1018.71 1018.46 1018.19 1017.89 1017.56 1017.17 1016.72
1013.92 1014.46 1014.99 1015.48 1015.94 1016.36 1016.73 1017.07 1017.38 1017.66 1017.92 1018.16 1018.38 1018.58 1018.75 1018.89 1019.01 1019.12 1019.21 1019.29 1019.36 1019.42 1019.47 1019.49 1019.47 1019.41 1019.31 1019.17 1018.99 1018.79 1018.57 1018.35 1018.12 1017.87 1017.59 1017.28 1016.90 1016.46
1013.46 1013.99 1014.52 1015.01 1015.48 1015.90 1016.28 1016.63 1016.95 1017.25 1017.52 1017.77 1018.00 1018.20 1018.39 1018.55 1018.69 1018.81 1018.92 1019.02 1019.11 1019.17 1019.21 1019.22 1019.19 1019.12 1019.01 1018.85 1018.67 1018.46 1018.24 1018.02 1017.80 1017.56 1017.29 1016.98 1016.61 1016.17
1013.09 1013.63 1014.15 1014.65 1015.12 1015.55 1015.94 1016.29 1016.60 1016.90 1017.16 1017.42 1017.65 1017.87 1018.07 1018.26 1018.43 1018.59 1018.73 1018.86 1018.97 1019.05 1019.09 1019.10 1019.06 1018.96 1018.83 1018.65 1018.44 1018.22 1017.98 1017.75 1017.51 1017.25 1016.98 1016.66 1016.29 1015.84
1012.82 1013.36 1013.89 1014.40 1014.87 1015.29 1015.68 1016.02 1016.33 1016.61 1016.88 1017.12 1017.36 1017.59 1017.82 1018.04 1018.26 1018.46 1018.65 1018.82 1018.96 1019.05 1019.11 1019.11 1019.05 1018.94 1018.77 1018.56 1018.32 1018.06 1017.79 1017.52 1017.25 1016.96 1016.66 1016.32 1015.92 1015.46
1012.63 1013.19 1013.72 1014.23 1014.70 1015.12 1015.50 1015.84 1016.14 1016.41 1016.67 1016.92 1017.16 1017.42 1017.67 1017.94 1018.20 1018.45 1018.68 1018.89 1019.06 1019.18 1019.24 1019.23 1019.16 1019.02 1018.82 1018.57 1018.28 1017.98 1017.67 1017.35 1017.03 1016.70 1016.34 1015.96 1015.52 1015.04
1012.53 1013.09 1013.63 1014.14 1014.61 1015.04 1015.41 1015.74 1016.04 1016.31 1016.56 1016.82 1017.09 1017.37 1017.66 1017.96 1018.27 1018.56 1018.84 1019.08 1019.27 1019.40 1019.45 1019.43 1019.33 1019.16 1018.92 1018.64 1018.31 1017.96 1017.60 1017.23 1016.86 1016.47 1016.06 1015.62 1015.15 1014.62
1012.51 1013.08 1013.63 1014.14 1014.62 1015.04 1015.42 1015.75 1016.05 1016.33 1016.60 1016.88 1017.17 1017.48 1017.80 1018.14 1018.48 1018.80 1019.10 1019.35 1019.54 1019.66 1019.70 1019.65 1019.53 1019.32 1019.06 1018.74 1018.38 1018.00 1017.59 1017.18 1016.75 1016.31 1015.85 1015.36 1014.83 1014.27
1012.57 1013.15 1013.71 1014.23 1014.72 1015.16 1015.54 1015.89 1016.20 1016.50 1016.80 1017.10 1017.41 1017.75 1018.10 1018.46 1018.81 1019.14 1019.44 1019.68 1019.84 1019.93 1019.94 1019.86 1019.71 1019.48 1019.19 1018.85 1018.47 1018.07 1017.64 1017.19 1016.72 1016.24 1015.72 1015.18 1014.62 1014.03
1012.72 1013.32 1013.89 1014.44 1014.94 1015.39 1015.80 1016.17 1016.51 1016.84 1017.16 1017.49 1017.83 1018.19 1018.55 1018.91 1019.25 1019.56 1019.82 1020.02 1020.15 1020.19 1020.15 1020.04 1019.85 1019.61 1019.31 1018.96 1018.58 1018.17 1017.73 1017.26 1016.77 1016.24 1015.69 1015.11 1014.50 1013.88
1012.97 1013.59 1014.19 1014.76 1015.28 1015.76 1016.20 1016.60 1016.97 1017.33 1017.68 1018.04 1018.40 1018.76 1019.12 1019.46 1019.76 1020.03 1020.23 1020.36 1020.42 1020.41 1020.32 1020.17 1019.96 1019.70 1019.40 1019.07 1018.70 1018.29 1017.86 1017.38 1016.87 1016.32 1015.73 1015.11 1014.47 1013.82
1013.32 1013.97 1014.60 1015.20 1015.75 1016.26 1016.73 1017.16 1017.56 1017.95 1018.33 1018.71 1019.07 1019.42 1019.75 1020.05 1020.30 1020.49 1020.62 1020.68 1020.67 1020.59 1020.45 1020.27 1020.04 1019.78 1019.49 1019.17 1018.81 1018.42 1017.99 1017.51 1016.98 1016.41 1015.79 1015.13 1014.45 1013.77
1013.78 1014.47 1015.13 1015.75 1016.33 1016.86 1017.36 1017.82 1018.25 1018.66 1019.05 1019.43 1019.79 1020.11 1020.40 1020.64 1020.82 1020.93 1020.98 1020.95 1020.87 1020.73 1020.55 1020.34 1020.10 1019.84 1019.57 1019.26 1018.93 1018.55 1018.12 1017.62 1017.07 1016.46 1015.80 1015.10 1014.38 1013.66
1014.35 1015.06 1015.75 1016.39 1016.99 1017.54 1018.05 1018.53 1018.98 1019.40 1019.79 1020.16 1020.49 1020.77 1021.00 1021.18 1021.28 1021.31 1021.28 1021.18 1021.03 1020.85 1020.64 1020.41 1020.17 1019.92 1019.65 1019.36 1019.03 1018.65 1018.20 1017.68 1017.08 1016.43 1015.72 1014.97 1014.21 1013.45
1015.02 1015.75 1016.45 1017.10 1017.70 1018.26 1018.78 1019.26 1019.70 1020.12 1020.50 1020.84 1021.13 1021.36 1021.53 1021.63 1021.66 1021.62 1021.52 1021.36 1021.17 1020.96 1020.73 1020.50 1020.26 1020.02 1019.76 1019.47 1019.12 1018.71 1018.23 1017.66 1017.01 1016.28 1015.51 1014.71 1013.90 1013.11
1015.78 1016.51 1017.20 1017.84 1018.43 1018.98 1019.48 1019.95 1020.39 1020.78 1021.13 1021.44 1021.68 1021.86 1021.97 1022.00 1021.97 1021.86 1021.71 1021.52 1021.30 1021.07 1020.84 1020.61 1020.39 1020.15 1019.89 1019.58 1019.21 1018.76 1018.21 1017.57 1016.85 1016.06 1015.22 1014.36 1013.51 1012.68
1016.61 1017.31 1017.97 1018.58 1019.15 1019.67 1020.15 1020.60 1021.00 1021.37 1021.68 1021.94 1022.14 1022.27 1022.32 1022.29 1022.21 1022.06 1021.88 1021.66 1021.44 1021.21 1020.99 1020.78 1020.56 1020.33 1020.05 1019.72 1019.31 1018.80 1018.18 1017.47 1016.67 1015.80 1014.90 1013.99 1013.10 1012.25
1017.46 1018.12 1018.73 1019.31 1019.83 1020.32 1020.77 1021.18 1021.56 1021.88 1022.16 1022.37 1022.52 1022.60 1022.60 1022.53 1022.41 1022.24 1022.04 1021.82 1021.60 1021.39 1021.19 1021.00 1020.79 1020.55 1020.26 1019.90 1019.44 1018.87 1018.18 1017.40 1016.52 1015.60 1014.64 1013.69 1012.78 1011.93
1018.30 1018.91 1019.47 1019.99 1020.47 1020.92 1021.33 1021.70 1022.04 1022.33 1022.57 1022.74 1022.85 1022.88 1022.85 1022.75 1022.60 1022.42 1022.21 1022.01 1021.81 1021.62 1021.44 1021.27 1021.07 1020.84 1020.53 1020.13 1019.63 1019.00 1018.26 1017.42 1016.49 1015.52 1014.53 1013.56 1012.65 1011.80
1019.10 1019.64 1020.14 1020.61 1021.04 1021.45 1021.82 1022.16 1022.47 1022.72 1022.92 1023.06 1023.14 1023.14 1023.07 1022.96 1022.80 1022.62 1022.42 1022.23 1022.06 1021.90 1021.75 1021.59 1021.41 1021.17 1020.85 1020.44 1019.90 1019.24 1018.46 1017.58 1016.62 1015.63 1014.63 1013.67 1012.77 1011.94
Thickness
5618 5613 5608 5602 5597 5592 5586 5579 5569 5561 5557 5556 5552 5549 5543 5537 5530 5523 5516 5510 5504 5497 5491 5485 5479 5473 5467 5462 5457 5451 5446 5441 5435 5430 5426 5422 5418 5415
5614 5608 5603 5597 5592 5586 5581 5575 5568 5559 5553 5552 5547 5542 5537 5530 5523 5516 5510 5503 5497 5490 5483 5477 5471 5464 5458 5453 5447 5442 5436 5429 5423 5417 5412 5408 5404 5400
5610 5605 5599 5593 5586 5580 5575 5569 5562 5555 5548 5545 5541 5535 5529 5522 5516 5510 5503 5496 5490 5483 5476 5469 5463 5456 5450 5444 5438 5431 5425 5418 5411 5404 5399 5395 5390 5386
5607 5601 5595 5588 5582 5575 5569 5563 5556 5550 5543 5537 5532 5526 5521 5515 5509 5502 5495 5489 5482 5475 5469 5462 5455 5448 5441 5435 5428 5421 5414 5406 5399 5392 5386 5381 5376 5371
5603 5597 5591 5584 5577 5570 5563 5557 5550 5545 5538 5530 5525 5519 5512 5507 5500 5494 5488 5481 5474 5468 5461 5454 5447 5439 5432 5425 5418 5410 5403 5395 5388 5381 5373 5367 5362 5357
5598 5593 5586 5580 5573 5566 5558 5551 5544 5537 5530 5523 5517 5510 5504 5498 5492 5485 5479 5473 5466 5460 5453 5445 5438 5430 5422 5415 5408 5401 5393 5385 5377 5369 5362 5355 5350 5345
5592 5586 5581 5575 5568 5561 5554 5545 5538 5530 5522 5515 5508 5502 5495 5488 5482 5477 5470 5463 5457 5451 5443 5436 5429 5421 5413 5405 5397 5390 5383 5375 5367 5358 5351 5344 5339 5334
5586 5580 5574 5567 5561 5555 5549 5541 5534 5526 5517 5509 5502 5495 5490 5482 5475 5468 5459 5452 5446 5442 5433 5426 5419 5411 5403 5395 5387 5380 5373 5364 5356 5349 5341 5335 5329 5324
5580 5573 5567 5561 5554 5547 5541 5534 5527 5521 5514 5506 5497 5490 5483 5477 5468 5459 5450 5442 5435 5430 5423 5416 5409 5400 5393 5385 5377 5370 5362 5354 5347 5339 5333 5326 5321 5316
5573 5567 5561 5554 5547 5540 5532 5525 5519 5512 5505 5499 5492 5485 5478 5469 5461 5452 5442 5433 5426 5418 5411 5403 5398 5390 5384 5375 5367 5359 5352 5344 5337 5331 5325 5319 5314 5309
5565 5559 5553 5547 5540 5533 5524 5517 5509 5502 5496 5490 5483 5476 5468 5460 5451 5440 5430 5421 5414 5407 5399 5390 5385 5379 5374 5366 5357 5349 5341 5334 5328 5322 5317 5312 5308 5303
5555 5550 5545 5539 5532 5525 5518 5510 5501 5494 5487 5480 5473 5466 5458 5449 5441 5431 5421 5411 5403 5395 5388 5378 5371 5363 5360 5356 5346 5338 5331 5324 5318 5313 5309 5305 5301 5298
5547 5541 5536 5531 5524 5518 5511 5504 5497 5488 5479 5471 5462 5454 5446 5438 5429 5421 5411 5402 5392 5383 5375 5366 5358 5349 5341 5339 5336 5329 5321 5316 5310 5306 5302 5298 5295 5292
5541 5534 5528 5522 5516 5509 5502 5496 5488 5479 5470 5460 5452 5443 5435 5427 5419 5411 5402 5393 5384 5374 5365 5355 5346 5338 5330 5325 5323 5320 5313 5308 5304 5300 5296 5293 5290 5287
5533 5527 5520 5513 5506 5499 5493 5486 5477 5469 5459 5451 5442 5434 5426 5418 5409 5400 5392 5383 5374 5365 5356 5347 5338 5330 5321 5315 5312 5308 5305 5302 5298 5294 5290 5288 5285 5284
5522 5516 5509 5502 5495 5489 5481 5474 5467 5459 5451 5442 5433 5424 5416 5407 5398 5390 5381 5372 5363 5355 5347 5339 5331 5323 5315 5310 5304 5301 5296 5292 5291 5288 5285 5283 5282 5280
5511 5503 5496 5489 5482 5476 5469 5462 5455 5448 5440 5432 5423 5414 5406 5397 5388 5380 5371 5362 5353 5345 5338 5331 5324 5317 5311 5305 5300 5296 5291 5287 5285 5282 5281 5281 5280 5279
5502 5493 5486 5480 5473 5466 5459 5452 5445 5438 5430 5422 5414 5405 5396 5387 5378 5370 5361 5352 5344 5336 5329 5323 5316 5310 5304 5301 5297 5292 5286 5283 5281 5279 5276 5276 5278 5279
5491 5484 5478 5471 5465 5458 5451 5444 5436 5428 5420 5412 5404 5395 5386 5377 5368 5360 5351 5343 5335 5328 5321 5314 5307 5301 5295 5291 5290 5288 5282 5279 5278 5277 5275 5273 5273 5277
5481 5475 5469 5462 5455 5448 5441 5434 5426 5418 5410 5402 5393 5384 5376 5367 5359 5350 5342 5334 5326 5319 5313 5306 5299 5294 5288 5283 5281 5281 5279 5276 5274 5274 5274 5274 5275 5277
5471 5465 5459 5453 5446 5439 5432 5425 5417 5409 5400 5392 5383 5375 5367 5358 5349 5341 5333 5327 5319 5311 5305 5299 5294 5290 5284 5279 5276 5276 5276 5274 5271 5271 5272 5273 5275 5277
5462 5456 5450 5443 5437 5430 5422 5415 5407 5399 5390 5382 5374 5365 5357 5349 5341 5333 5325 5317 5310 5304 5298 5292 5288 5283 5279 5275 5272 5271 5271 5272 5272 5271 5270 5270 5270 5273
5453 5447 5440 5434 5427 5420 5413 5405 5398 5389 5381 5373 5364 5356 5348 5340 5332 5324 5316 5309 5303 5296 5291 5286 5282 5278 5274 5271 5267 5266 5265 5266 5267 5268 5269 5270 5270 5271